Nur fliegen ist schöner ....

Ab jetzt - Rundflüge, Fallschirmspringen und noch mehr wieder möglich!

Willkommen beim Flugservice Bautzen GmbH

Wir sind eine nach europäischen Richtlinien zugelassene Flugschule und lizenziertes Luftfahrtunternehmen. Bei uns können sie nicht nur Rundflüge über die Oberlausitz oder Sachsen buchen, sondern in unserer Flugschule selber das Fliegen erlernen. Erfahrene Fluglehrer stehen Ihnen dabei zur Seite.

Wir bieten Ihnen außerdem spezielle Flüge zur Vermessung oder Fotoflüge für Luftbildaufnahmen an. In Zusammenarbeit mit dem Fallschirmsportclub Dresden und dem Cottbuser Fallschirmsportclub setzen wir am Flugplatz Bautzen und Neuhausen Fallschirmspringer ab.
Schauen Sie sich in Ruhe bei uns um und wenn Sie Fragen haben oder weitere Informationen benötigen, scheuen Sie sich nicht Kontakt mit uns aufzunehmen.

Gutscheine für Rundflüge und Tandemsprünge können Sie ganz leicht auch online in unserem Shop erwerben.

Terminkalender

Letzter Monat Juni 2021 Nächster Monat
Mo Di Mi Do Fr Sa So
week 22 1 2 3 4 5 6
week 23 7 8 9 10 11 12 13
week 24 14 15 16 17 18 19 20
week 25 21 22 23 24 25 26 27
week 26 28 29 30

Flugwetterinfo

[Quelle: ADDS]
METAR
EDDC 200620Z 15008KT CAVOK 26/16 Q1011 NOSIG =
EDDC 200500Z 2006/2106 21007KT 9999 SCT025 BECMG 2015/2017 34005KT BECMG 2018/2020 14005KT PROB30 TEMPO 2018/2102 -TSRA SCT030CB
TAF
EDDC 200500Z 2006/2106 21007KT 9999 SCT025 BECMG 2015/2017 34005KT BECMG 2018/2020 14005KT PROB30 TEMPO 2018/2102 -TSRA SCT030CB =
SR / SS: 02:46 / 19:21 UTC (EDAB Flugplatz Bautzen 2021-06-20)

Öffnungszeiten

des Flugplatzes Bautzen erfahren Sie hier:

flugplatz bautzen logo
Flugservice Bautzen GmbH, Kornmarkt 34, 02625 Bautzen  Telefon: +49 (3591) 211105, Telefax: +49 (3591) 274512, E-Mail:  flugservice(at)fsbautzen.de